Language: 


Des rapports , des résumés tant et plus, au choix de chacun....


Données statistiques de la station
Quotidien Rapport Janvier 31, 2017 Unités:  Anglais    Métrique   les deux
« Précédent Jour
Suivant Jour »
Quotidien Hebdomadaire Mensuel Annuel Actuel
  Haut: Bas: Moyen:
Température: 42.3 °F 32 °F 39.7 °F
Pt de rosée: 41.7 °F 37.6 °F 38.7 °F
Humidité: 98 % 0 % 95 %
Vitesse du vent: 10.1 mph 0 mph 5 mph
Rafales: 10.5 mph - -
Vent:- - East
Pression: 30 in 29.9 in -
Précipitation: 0 in    
Historical Graphs
 
 
Données statistiques pour Janvier 31, 2017
Heure Température Point de rosée Pression Vent Vitesse du vent Refales Humidité Pluie (taux horaire)
00:02 42.3 °F 41.7 °F 29.9 in ENE 3.6 mph 4.7 mph 98 % 0 in
00:07 42.3 °F 41.7 °F 29.9 in ENE 3.1 mph 5.4 mph 98 % 0 in
00:12 42.3 °F 41.7 °F 29.9 in NE 3.1 mph 5.4 mph 98 % 0 in
00:17 42.1 °F 41.5 °F 29.9 in ENE 4.3 mph 4.7 mph 98 % 0 in
00:22 42.1 °F 41.5 °F 29.9 in ENE 3.4 mph 5.8 mph 98 % 0 in
00:27 42.1 °F 41.4 °F 29.9 in ENE 5.4 mph 5.8 mph 97 % 0 in
00:32 42.1 °F 41.4 °F 29.9 in ENE 6 mph 6.9 mph 97 % 0 in
00:37 42.1 °F 41.4 °F 29.9 in NE 4.3 mph 6.9 mph 97 % 0 in
00:42 42.1 °F 41.4 °F 29.9 in East 3.6 mph 6.5 mph 97 % 0 in
00:47 42.1 °F 41.4 °F 29.9 in ENE 3.6 mph 6 mph 97 % 0 in
00:52 41.9 °F 41.2 °F 29.9 in ENE 4 mph 6 mph 97 % 0 in
00:57 41.9 °F 41.2 °F 29.9 in East 4.9 mph 5.8 mph 97 % 0 in
01:02 41.9 °F 41.2 °F 29.9 in East 4.9 mph 5.8 mph 97 % 0 in
01:07 41.9 °F 41.2 °F 29.9 in ENE 3.6 mph 6.5 mph 97 % 0 in
01:12 41.7 °F 40.8 °F 29.9 in ENE 3.1 mph 6.5 mph 97 % 0 in
01:17 41.7 °F 40.8 °F 29.9 in ENE 3.6 mph 5.4 mph 97 % 0 in
01:22 41.7 °F 40.8 °F 29.9 in NE 3.6 mph 4.3 mph 97 % 0 in
01:27 41.5 °F 40.6 °F 29.9 in ENE 3.8 mph 4.3 mph 97 % 0 in
01:32 41.5 °F 40.6 °F 29.9 in ENE 6.5 mph 6.5 mph 97 % 0 in
01:37 41.5 °F 40.6 °F 29.9 in East 5.6 mph 6.9 mph 97 % 0 in
01:42 41.5 °F 40.6 °F 29.9 in ENE 3.8 mph 6.9 mph 97 % 0 in
01:47 41.5 °F 40.6 °F 29.9 in ENE 5.6 mph 6.3 mph 97 % 0 in
01:52 41.5 °F 40.6 °F 29.9 in East 2.7 mph 5.8 mph 97 % 0 in
01:57 41.5 °F 40.6 °F 29.9 in ENE 4 mph 5.8 mph 97 % 0 in
02:02 32 °F 40.8 °F 29.9 in NE 4 mph 4 mph 0 % 0 in
02:07 41.4 °F 40.6 °F 29.9 in ENE 3.4 mph 4.3 mph 97 % 0 in
02:12 41.4 °F 40.6 °F 29.9 in East 3.1 mph 4.3 mph 97 % 0 in
02:17 41.4 °F 40.6 °F 29.9 in ENE 4.7 mph 4.9 mph 97 % 0 in
02:22 41.4 °F 40.6 °F 29.9 in ENE 3.8 mph 5.4 mph 97 % 0 in
02:27 41.2 °F 40.5 °F 29.9 in ENE 4 mph 5.6 mph 97 % 0 in
02:32 41.2 °F 40.5 °F 29.9 in ENE 3.8 mph 6 mph 97 % 0 in
02:37 41.2 °F 40.5 °F 29.9 in East 4.7 mph 6 mph 97 % 0 in
02:42 41 °F 40.3 °F 29.9 in ENE 4.9 mph 6 mph 97 % 0 in
02:47 41.2 °F 40.5 °F 29.9 in NE 6 mph 6.5 mph 97 % 0 in
02:52 41 °F 40.3 °F 29.9 in ENE 3.6 mph 6.5 mph 97 % 0 in
02:57 41 °F 40.3 °F 29.9 in East 3.8 mph 6.5 mph 97 % 0 in
03:10 40.8 °F 39.7 °F 29.9 in ENE 6 mph 6.5 mph 96 % 0 in
03:15 40.8 °F 39.7 °F 29.9 in ENE 4.9 mph 6.5 mph 96 % 0 in
03:20 40.8 °F 39.7 °F 29.9 in ENE 5.6 mph 7.4 mph 96 % 0 in
03:25 40.8 °F 39.7 °F 29.9 in East 4.3 mph 7.4 mph 96 % 0 in
03:30 40.8 °F 39.7 °F 29.9 in East 6 mph 7.8 mph 96 % 0 in
03:35 40.8 °F 39.7 °F 29.9 in East 4 mph 7.8 mph 96 % 0 in
03:40 40.8 °F 39.7 °F 29.9 in ENE 6 mph 6.3 mph 96 % 0 in
03:45 40.8 °F 39.7 °F 29.9 in NE 3.6 mph 6 mph 96 % 0 in
03:50 40.8 °F 39.7 °F 29.9 in East 3.8 mph 6.3 mph 96 % 0 in
03:55 40.6 °F 39.6 °F 29.9 in ENE 4.3 mph 6.3 mph 96 % 0 in
04:00 40.6 °F 39.6 °F 29.9 in ENE 5.6 mph 6 mph 96 % 0 in
04:05 40.6 °F 39.6 °F 29.9 in East 3.6 mph 8.5 mph 96 % 0 in
04:10 40.5 °F 39.4 °F 29.9 in East 2.5 mph 8.5 mph 96 % 0 in
04:15 40.5 °F 39.4 °F 29.9 in East 4.7 mph 5.8 mph 96 % 0 in
04:20 40.5 °F 39.4 °F 29.9 in East 2.7 mph 5.8 mph 96 % 0 in
04:25 40.5 °F 39.4 °F 29.9 in East 4.7 mph 6.3 mph 96 % 0 in
04:30 40.5 °F 39.4 °F 29.9 in ENE 2.7 mph 6.3 mph 96 % 0 in
04:35 40.5 °F 39.4 °F 29.9 in NE 4 mph 4.9 mph 96 % 0 in
04:40 40.5 °F 39.4 °F 29.9 in ENE 2.9 mph 5.8 mph 96 % 0 in
04:45 40.5 °F 39.4 °F 29.9 in ENE 3.4 mph 5.8 mph 96 % 0 in
04:50 40.5 °F 39.4 °F 29.9 in East 3.1 mph 6.5 mph 96 % 0 in
04:55 40.5 °F 39.4 °F 29.9 in ENE 3.6 mph 6.5 mph 96 % 0 in
05:00 40.5 °F 39.4 °F 29.9 in NE 4 mph 6.3 mph 96 % 0 in
05:05 40.5 °F 39.4 °F 29.9 in NE 6.3 mph 6.3 mph 96 % 0 in
05:10 40.5 °F 39.4 °F 29.9 in NE 3.4 mph 6.3 mph 96 % 0 in
05:15 40.5 °F 39.7 °F 29.9 in East 3.6 mph 6.3 mph 97 % 0 in
05:20 40.3 °F 39.2 °F 29.9 in ENE 3.4 mph 6.3 mph 96 % 0 in
05:25 40.3 °F 39.2 °F 29.9 in ENE 2.7 mph 6 mph 96 % 0 in
05:30 40.3 °F 39.2 °F 29.9 in ENE 5.8 mph 6.5 mph 96 % 0 in
05:35 40.3 °F 39.2 °F 29.9 in East 3.6 mph 6.5 mph 96 % 0 in
05:40 40.1 °F 39 °F 29.9 in East 3.1 mph 6.3 mph 96 % 0 in
05:45 40.1 °F 39 °F 29.9 in NE 3.6 mph 6.5 mph 96 % 0 in
05:50 40.1 °F 39 °F 29.9 in ENE 3.8 mph 6.5 mph 96 % 0 in
05:55 39.9 °F 38.8 °F 29.9 in East 4 mph 6.5 mph 96 % 0 in
06:00 39.9 °F 38.8 °F 29.9 in ENE 4.9 mph 8.5 mph 96 % 0 in
06:05 39.7 °F 38.7 °F 29.9 in East 4.9 mph 8.5 mph 96 % 0 in
06:10 39.7 °F 38.7 °F 29.9 in ENE 5.8 mph 8.5 mph 96 % 0 in
06:15 39.6 °F 38.5 °F 29.9 in East 6 mph 6.9 mph 96 % 0 in
06:20 39.6 °F 38.5 °F 29.9 in East 4.7 mph 7.4 mph 96 % 0 in
06:30 39.4 °F 38.5 °F 29.9 in ENE 6 mph 7.4 mph 96 % 0 in
06:35 39.4 °F 38.5 °F 29.9 in ENE 6.5 mph 8.9 mph 96 % 0 in
06:40 39.2 °F 38.1 °F 29.9 in NE 5.6 mph 8.9 mph 96 % 0 in
06:45 39.2 °F 38.1 °F 29.9 in ENE 5.6 mph 7.8 mph 96 % 0 in
06:50 39 °F 37.9 °F 29.9 in NE 5.8 mph 7.2 mph 96 % 0 in
06:55 39 °F 37.9 °F 29.9 in East 6.5 mph 7.6 mph 96 % 0 in
07:00 39 °F 37.9 °F 29.9 in East 5.8 mph 8.7 mph 96 % 0 in
07:05 38.8 °F 38.1 °F 29.9 in East 5.6 mph 8.7 mph 97 % 0 in
07:10 38.8 °F 38.1 °F 29.9 in East 5.8 mph 8.7 mph 97 % 0 in
07:15 38.8 °F 38.1 °F 29.9 in East 4.3 mph 8.7 mph 97 % 0 in
07:20 38.7 °F 37.9 °F 29.9 in East 3.6 mph 6.5 mph 97 % 0 in
07:25 38.7 °F 37.9 °F 29.9 in East 6 mph 6 mph 97 % 0 in
07:30 38.7 °F 37.9 °F 29.9 in East 5.8 mph 6 mph 97 % 0 in
07:35 38.7 °F 37.9 °F 29.9 in East 4 mph 6.3 mph 97 % 0 in
07:40 38.7 °F 37.9 °F 29.9 in East 4 mph 7.4 mph 97 % 0 in
07:45 38.7 °F 37.9 °F 29.9 in ENE 5.4 mph 7.6 mph 97 % 0 in
07:50 38.7 °F 37.9 °F 29.9 in East 3.8 mph 7.6 mph 97 % 0 in
07:55 38.7 °F 37.9 °F 29.9 in East 3.8 mph 7.2 mph 97 % 0 in
08:00 38.7 °F 37.9 °F 29.9 in East 5.8 mph 6.3 mph 97 % 0 in
08:05 38.7 °F 37.9 °F 29.9 in ESE 2.9 mph 6.3 mph 97 % 0 in
08:10 38.7 °F 37.9 °F 29.9 in ESE 6.3 mph 7.6 mph 97 % 0 in
08:15 38.7 °F 37.9 °F 29.9 in East 4.9 mph 7.6 mph 97 % 0 in
08:20 38.7 °F 37.9 °F 29.9 in ESE 5.8 mph 6.5 mph 97 % 0 in
08:25 38.7 °F 37.9 °F 29.9 in ENE 4.3 mph 7.8 mph 97 % 0 in
08:30 38.8 °F 38.1 °F 29.9 in East 4 mph 7.8 mph 97 % 0 in
08:35 38.8 °F 38.1 °F 29.9 in East 7.4 mph 7.4 mph 97 % 0 in
08:40 38.8 °F 38.1 °F 30 in ESE 4.7 mph 7.4 mph 97 % 0 in
08:45 38.8 °F 38.1 °F 30 in East 5.4 mph 6.9 mph 97 % 0 in
08:50 38.8 °F 38.1 °F 30 in East 5.6 mph 6.3 mph 97 % 0 in
08:55 38.8 °F 38.1 °F 30 in ENE 7.4 mph 8.5 mph 97 % 0 in
09:00 38.7 °F 37.9 °F 30 in East 4 mph 8.5 mph 97 % 0 in
09:05 38.7 °F 37.9 °F 30 in East 6 mph 7.6 mph 97 % 0 in
09:10 38.7 °F 37.9 °F 30 in ESE 3.8 mph 6.3 mph 97 % 0 in
09:15 38.7 °F 37.9 °F 30 in ESE 4.3 mph 7.2 mph 97 % 0 in
09:20 38.5 °F 37.8 °F 30 in East 6 mph 7.2 mph 97 % 0 in
09:25 38.5 °F 37.8 °F 30 in ESE 3.6 mph 7.2 mph 97 % 0 in
09:30 38.5 °F 37.8 °F 30 in ESE 3.8 mph 6.3 mph 97 % 0 in
09:35 38.5 °F 37.8 °F 30 in ESE 4.3 mph 7.4 mph 97 % 0 in
09:40 38.5 °F 37.8 °F 30 in ESE 8.1 mph 8.5 mph 97 % 0 in
09:45 38.5 °F 37.8 °F 30 in ESE 6 mph 9.6 mph 97 % 0 in
09:50 38.5 °F 37.8 °F 30 in East 7.4 mph 9.6 mph 97 % 0 in
09:55 38.5 °F 37.8 °F 30 in ESE 5.8 mph 8.5 mph 97 % 0 in
10:00 38.5 °F 37.8 °F 30 in East 7.8 mph 8.5 mph 97 % 0 in
10:05 38.5 °F 37.8 °F 30 in ESE 8.5 mph 8.7 mph 97 % 0 in
10:10 38.5 °F 37.8 °F 30 in East 4.9 mph 9.4 mph 97 % 0 in
10:15 38.5 °F 37.8 °F 30 in ESE 6 mph 9.4 mph 97 % 0 in
10:20 38.7 °F 37.9 °F 30 in ENE 3.4 mph 8.7 mph 97 % 0 in
10:25 38.8 °F 38.1 °F 30 in East 4.3 mph 8.7 mph 97 % 0 in
10:30 39 °F 38.3 °F 30 in East 4.9 mph 7.2 mph 97 % 0 in
10:35 39 °F 37.9 °F 30 in ESE 8.1 mph 8.1 mph 96 % 0 in
10:40 39 °F 37.9 °F 29.9 in ESE 7.8 mph 8.5 mph 96 % 0 in
10:45 39 °F 37.9 °F 29.9 in ESE 7.8 mph 10.3 mph 96 % 0 in
10:50 39 °F 37.9 °F 29.9 in East 7.8 mph 10.3 mph 96 % 0 in
10:55 39 °F 37.9 °F 30 in East 5.6 mph 9.8 mph 96 % 0 in
11:00 39.2 °F 38.1 °F 30 in ESE 5.8 mph 9.4 mph 96 % 0 in
11:05 39 °F 37.9 °F 30 in ESE 7.6 mph 9.8 mph 96 % 0 in
11:10 39.2 °F 38.1 °F 29.9 in SE 5.6 mph 9.8 mph 96 % 0 in
11:15 39.2 °F 38.1 °F 29.9 in ESE 4.9 mph 9.6 mph 96 % 0 in
11:20 39.2 °F 38.1 °F 29.9 in SE 7.8 mph 8.5 mph 96 % 0 in
11:25 39.4 °F 38.5 °F 29.9 in ESE 6.5 mph 8.7 mph 96 % 0 in
11:30 39.4 °F 38.5 °F 29.9 in ESE 6 mph 8.7 mph 96 % 0 in
11:35 39.4 °F 38.5 °F 29.9 in East 7.6 mph 8.7 mph 96 % 0 in
11:40 39.4 °F 38.5 °F 30 in ESE 8.1 mph 8.7 mph 96 % 0 in
11:45 39.6 °F 38.5 °F 30 in SE 6.5 mph 8.7 mph 96 % 0 in
11:50 39.6 °F 38.5 °F 30 in ESE 8.1 mph 8.7 mph 96 % 0 in
11:55 39.6 °F 38.5 °F 29.9 in ESE 5.4 mph 8.1 mph 96 % 0 in
12:00 39.7 °F 38.7 °F 29.9 in ESE 3.1 mph 7.6 mph 96 % 0 in
12:05 39.7 °F 38.5 °F 29.9 in East 5.6 mph 6.3 mph 95 % 0 in
12:10 39.7 °F 38.5 °F 30 in SE 2.9 mph 6.3 mph 95 % 0 in
12:15 39.9 °F 38.8 °F 30 in East 2.9 mph 6.3 mph 96 % 0 in
12:20 40.1 °F 38.8 °F 30 in East 5.8 mph 6.5 mph 95 % 0 in
12:25 40.1 °F 39 °F 30 in East 5.4 mph 7.2 mph 96 % 0 in
12:30 40.1 °F 39 °F 30 in ESE 7.2 mph 7.4 mph 96 % 0 in
12:35 40.3 °F 39 °F 30 in ENE 6 mph 7.8 mph 95 % 0 in
12:40 40.1 °F 38.8 °F 29.9 in ESE 4.3 mph 7.8 mph 95 % 0 in
12:45 40.3 °F 39 °F 29.9 in East 4.3 mph 8.1 mph 95 % 0 in
12:50 40.3 °F 39 °F 29.9 in East 4 mph 8.1 mph 95 % 0 in
12:55 40.3 °F 39 °F 30 in SE 4.9 mph 6.9 mph 95 % 0 in
13:00 40.3 °F 39 °F 30 in SE 6 mph 7.4 mph 95 % 0 in
13:05 40.3 °F 39 °F 30 in ESE 4.7 mph 7.4 mph 95 % 0 in
13:10 40.3 °F 39 °F 30 in ESE 6.3 mph 6.5 mph 95 % 0 in
13:15 40.3 °F 39 °F 30 in SE 7.4 mph 7.8 mph 95 % 0 in
13:20 40.3 °F 39 °F 30 in ESE 5.8 mph 8.5 mph 95 % 0 in
13:25 40.3 °F 39 °F 30 in ESE 3.6 mph 8.5 mph 95 % 0 in
13:30 40.3 °F 39 °F 30 in SE 6.5 mph 8.1 mph 95 % 0 in
13:35 40.3 °F 39 °F 30 in ESE 5.4 mph 7.6 mph 95 % 0 in
13:40 40.5 °F 39 °F 30 in ESE 7.2 mph 7.8 mph 95 % 0 in
13:45 40.5 °F 39 °F 30 in SE 6.7 mph 7.8 mph 95 % 0 in
13:50 40.5 °F 39 °F 30 in ESE 5.4 mph 8.5 mph 95 % 0 in
13:55 40.5 °F 39 °F 30 in ESE 5.6 mph 8.5 mph 95 % 0 in
14:00 40.5 °F 39 °F 30 in East 5.4 mph 7.4 mph 95 % 0 in
14:05 40.5 °F 38.8 °F 30 in East 7.4 mph 10.5 mph 94 % 0 in
14:10 40.3 °F 38.7 °F 30 in East 7.4 mph 10.5 mph 94 % 0 in
14:15 40.3 °F 38.7 °F 30 in East 7.6 mph 10.1 mph 94 % 0 in
14:20 40.3 °F 38.7 °F 30 in East 8.7 mph 8.7 mph 94 % 0 in
14:25 40.1 °F 38.5 °F 30 in ESE 6.5 mph 10.1 mph 94 % 0 in
14:30 40.1 °F 38.5 °F 30 in East 6.9 mph 10.1 mph 94 % 0 in
14:36 40.1 °F 38.5 °F 30 in ESE 6.5 mph 8.5 mph 94 % 0 in
14:41 40.1 °F 38.5 °F 30 in ENE 5.4 mph 8.5 mph 94 % 0 in
14:46 40.1 °F 38.5 °F 30 in ESE 8.1 mph 10.3 mph 94 % 0 in
14:47 40.1 °F 38.5 °F 30 in East 6 mph 10.3 mph 94 % 0 in
14:52 39.9 °F 38.5 °F 30 in East 6.9 mph 9.8 mph 94 % 0 in
14:57 39.9 °F 38.5 °F 30 in East 9.8 mph 9.8 mph 94 % 0 in
15:02 39.9 °F 38.5 °F 30 in ESE 4.3 mph 9.8 mph 94 % 0 in
15:07 40.1 °F 38.5 °F 30 in ESE 7.6 mph 9.8 mph 94 % 0 in
15:12 40.1 °F 38.5 °F 30 in East 10.1 mph 10.1 mph 94 % 0 in
15:17 40.1 °F 38.5 °F 30 in ESE 6.3 mph 10.1 mph 94 % 0 in
15:22 40.3 °F 38.7 °F 30 in ESE 6 mph 10.1 mph 94 % 0 in
15:27 40.3 °F 38.7 °F 30 in SE 7.6 mph 10.1 mph 94 % 0 in
15:32 40.5 °F 38.8 °F 30 in East 7.4 mph 10.5 mph 94 % 0 in
15:37 40.5 °F 38.8 °F 30 in SE 7.8 mph 10.5 mph 94 % 0 in
15:42 40.3 °F 38.5 °F 30 in East 8.9 mph 10.1 mph 93 % 0 in
15:47 40.3 °F 38.5 °F 30 in ENE 5.8 mph 10.1 mph 93 % 0 in
15:52 40.3 °F 38.5 °F 30 in ESE 4 mph 8.9 mph 93 % 0 in
15:57 40.5 °F 38.8 °F 30 in ESE 5.4 mph 7.8 mph 94 % 0 in
16:02 40.5 °F 38.7 °F 30 in ESE 5.8 mph 7.8 mph 93 % 0 in
16:07 40.5 °F 38.7 °F 30 in ESE 2.9 mph 8.7 mph 93 % 0 in
16:12 40.5 °F 38.7 °F 30 in SE 4.9 mph 8.7 mph 93 % 0 in
16:17 40.5 °F 38.7 °F 30 in Calm   6.5 mph 93 % 0 in
16:22 40.6 °F 38.8 °F 30 in SE 4.9 mph 6.3 mph 93 % 0 in
16:27 40.5 °F 38.7 °F 30 in ESE 3.6 mph 7.4 mph 93 % 0 in
16:32 40.5 °F 38.7 °F 30 in ESE 5.8 mph 7.4 mph 93 % 0 in
16:37 40.5 °F 38.7 °F 30 in ESE 5.8 mph 7.6 mph 93 % 0 in
16:42 40.5 °F 38.7 °F 30 in ESE 6.3 mph 7.6 mph 93 % 0 in
16:47 40.3 °F 38.5 °F 30 in ESE 3.6 mph 8.5 mph 93 % 0 in
16:52 40.3 °F 38.5 °F 30 in East 3.6 mph 8.5 mph 93 % 0 in
16:57 40.3 °F 38.5 °F 30 in ESE 6 mph 8.1 mph 93 % 0 in
17:02 40.1 °F 38.3 °F 30 in ESE 7.6 mph 10.3 mph 93 % 0 in
17:07 39.9 °F 37.8 °F 30 in East 4.9 mph 10.3 mph 92 % 0 in
17:12 39.7 °F 37.6 °F 30 in ESE 4.9 mph 8.5 mph 92 % 0 in
17:17 39.7 °F 37.9 °F 30 in ESE 4 mph 8.5 mph 93 % 0 in
17:22 39.6 °F 37.8 °F 30 in SE 4.3 mph 8.5 mph 93 % 0 in
17:27 39.6 °F 37.8 °F 30 in ESE 3.8 mph 7.4 mph 93 % 0 in
17:32 39.6 °F 37.8 °F 30 in ESE 4.9 mph 6.3 mph 93 % 0 in
17:37 39.4 °F 37.6 °F 29.9 in SE 3.8 mph 8.7 mph 93 % 0 in
17:42 39.4 °F 37.6 °F 29.9 in ESE 4 mph 8.7 mph 93 % 0 in
17:47 39.4 °F 37.8 °F 29.9 in ESE 3.8 mph 5.6 mph 94 % 0 in
17:52 39.4 °F 37.8 °F 30 in SE 4.3 mph 7.8 mph 94 % 0 in
17:57 39.4 °F 37.8 °F 30 in SE 4.3 mph 7.8 mph 94 % 0 in
18:02 39.4 °F 37.8 °F 30 in ESE 6 mph 7.2 mph 94 % 0 in
18:07 39.4 °F 37.8 °F 30 in SE 2.5 mph 6.9 mph 94 % 0 in
18:12 39.4 °F 37.8 °F 30 in SE 6 mph 6.5 mph 94 % 0 in
18:17 39.4 °F 37.8 °F 30 in Calm   6.5 mph 94 % 0 in
18:22 39.4 °F 37.8 °F 30 in ESE 2.7 mph 6 mph 94 % 0 in
18:27 39.6 °F 38.3 °F 30 in ESE 6.5 mph 6.5 mph 95 % 0 in
18:32 39.6 °F 38.3 °F 30 in SE 3.1 mph 6.5 mph 95 % 0 in
18:37 39.6 °F 38.3 °F 30 in SSE 2 mph 6.5 mph 95 % 0 in
18:42 39.6 °F 38.3 °F 30 in SE 4.7 mph 5.8 mph 95 % 0 in
18:47 39.6 °F 38.3 °F 30 in East 5.6 mph 5.8 mph 95 % 0 in
18:52 39.6 °F 38.3 °F 29.9 in SSE 4 mph 5.6 mph 95 % 0 in
18:57 39.6 °F 38.3 °F 29.9 in East 5.4 mph 6 mph 95 % 0 in
19:02 39.6 °F 38.3 °F 29.9 in SE 5.8 mph 6.5 mph 95 % 0 in
19:07 39.6 °F 38.3 °F 30 in ESE 2.5 mph 6.5 mph 95 % 0 in
19:12 39.6 °F 38.3 °F 30 in ESE 6 mph 6.7 mph 95 % 0 in
19:17 39.6 °F 38.3 °F 30 in ESE 4.3 mph 6.7 mph 95 % 0 in
19:22 39.6 °F 38.3 °F 30 in ESE 2.5 mph 6.3 mph 95 % 0 in
19:27 39.4 °F 38.1 °F 30 in ESE 5.8 mph 7.4 mph 95 % 0 in
19:37 39.2 °F 37.9 °F 30 in ESE 5.8 mph 6.5 mph 95 % 0 in
19:42 39.2 °F 37.9 °F 30 in ESE 5.8 mph 6.9 mph 95 % 0 in
19:47 39.2 °F 37.9 °F 30 in ESE 6.5 mph 8.7 mph 95 % 0 in
19:52 39.4 °F 38.1 °F 30 in ESE 7.4 mph 8.7 mph 95 % 0 in
19:57 39.4 °F 38.1 °F 30 in ESE 6.5 mph 7.8 mph 95 % 0 in
20:02 39.4 °F 38.1 °F 30 in ESE 5.6 mph 7.8 mph 95 % 0 in
20:07 39.4 °F 38.1 °F 30 in ESE 5.6 mph 8.5 mph 95 % 0 in
20:12 39.4 °F 38.1 °F 30 in East 4.7 mph 8.5 mph 95 % 0 in
20:17 39.2 °F 37.9 °F 30 in SE 5.6 mph 6.5 mph 95 % 0 in
20:22 39.4 °F 38.1 °F 30 in SSE 4.9 mph 8.5 mph 95 % 0 in
20:27 39.4 °F 38.1 °F 30 in ESE 3.1 mph 8.5 mph 95 % 0 in
20:32 39.4 °F 38.1 °F 30 in SE 6.5 mph 6.5 mph 95 % 0 in
20:37 39.4 °F 38.1 °F 30 in ESE 3.1 mph 7.6 mph 95 % 0 in
20:42 39.4 °F 38.1 °F 30 in SE 5.6 mph 8.1 mph 95 % 0 in
20:47 39.4 °F 38.1 °F 30 in ESE 4 mph 8.1 mph 95 % 0 in
20:52 39.4 °F 38.1 °F 30 in SE 4.7 mph 7.8 mph 95 % 0 in
20:57 39.4 °F 38.1 °F 30 in ESE 5.6 mph 7.8 mph 95 % 0 in
21:02 39.4 °F 38.1 °F 30 in ESE 4 mph 6.5 mph 95 % 0 in
21:07 39.4 °F 38.1 °F 30 in ESE 3.6 mph 7.2 mph 95 % 0 in
21:12 39.2 °F 37.9 °F 30 in ESE 4.3 mph 7.4 mph 95 % 0 in
21:17 39.2 °F 37.9 °F 30 in ESE 7.4 mph 8.5 mph 95 % 0 in
21:22 39 °F 37.8 °F 30 in ESE 5.6 mph 8.5 mph 95 % 0 in
21:27 39 °F 37.8 °F 30 in ESE 5.6 mph 7.4 mph 95 % 0 in
21:32 39 °F 37.8 °F 30 in ESE 7.6 mph 7.6 mph 95 % 0 in
21:37 39 °F 37.8 °F 30 in ESE 4.9 mph 7.6 mph 95 % 0 in
21:42 39 °F 37.8 °F 30 in ESE 4.3 mph 8.1 mph 95 % 0 in
21:47 39 °F 37.8 °F 30 in East 3.1 mph 8.1 mph 95 % 0 in
21:52 39 °F 37.9 °F 30 in ESE 3.8 mph 7.6 mph 96 % 0 in
21:57 39 °F 37.9 °F 30 in SSE 4.3 mph 7.4 mph 96 % 0 in
22:02 39 °F 37.9 °F 30 in ESE 4.3 mph 6.5 mph 96 % 0 in
22:07 39 °F 37.9 °F 29.9 in East 3.8 mph 8.7 mph 96 % 0 in
22:12 39 °F 37.9 °F 29.9 in ESE 3.6 mph 8.7 mph 96 % 0 in
22:17 38.8 °F 38.1 °F 29.9 in SE 7.4 mph 7.4 mph 97 % 0 in
22:22 38.8 °F 38.1 °F 29.9 in ESE 6.5 mph 8.1 mph 97 % 0 in
22:27 38.8 °F 38.1 °F 29.9 in ESE 4.9 mph 8.1 mph 97 % 0 in
22:32 39 °F 37.9 °F 29.9 in ESE 7.6 mph 9.4 mph 96 % 0 in
22:37 39 °F 38.3 °F 29.9 in SE 4 mph 9.4 mph 97 % 0 in
22:42 39 °F 38.3 °F 29.9 in East 0.9 mph 8.5 mph 97 % 0 in
22:47 38.8 °F 38.1 °F 29.9 in East 3.8 mph 5.6 mph 97 % 0 in
22:52 38.8 °F 38.1 °F 29.9 in East 6 mph 6.7 mph 97 % 0 in
22:57 39 °F 38.3 °F 29.9 in SE 7.8 mph 8.5 mph 97 % 0 in
23:02 39 °F 38.3 °F 29.9 in SE 4.9 mph 8.5 mph 97 % 0 in
23:07 39 °F 38.3 °F 29.9 in SE 4.9 mph 7.4 mph 97 % 0 in
23:12 39 °F 38.3 °F 29.9 in SE 4.9 mph 6.3 mph 97 % 0 in
23:17 39 °F 38.3 °F 29.9 in South 4.9 mph 6.5 mph 97 % 0 in
23:22 39 °F 38.3 °F 29.9 in SE 4 mph 6.5 mph 97 % 0 in
23:27 39 °F 38.3 °F 29.9 in ESE 4 mph 5.8 mph 97 % 0 in
23:32 39 °F 38.3 °F 29.9 in SSE 0.9 mph 4.9 mph 97 % 0 in
23:37 39 °F 38.3 °F 29.9 in SE 0.9 mph 4.3 mph 97 % 0 in
23:42 39 °F 38.3 °F 29.9 in East 2 mph 4.7 mph 97 % 0 in
23:47 39 °F 38.3 °F 29.9 in Calm   4.7 mph 97 % 0 in
23:52 39.2 °F 38.5 °F 29.9 in East 2 mph 4.7 mph 97 % 0 in
23:57 39.2 °F 38.7 °F 29.9 in ESE 2.5 mph 4.7 mph 98 % 0 in
Le Gheer Warneton
Courtoisie de Weather Underground - 2.25 mb

Mise a jour : 17-12-17 08:56:12
Généré par Cumulus 1.9.4 (1099)